Location: Bittkow
(50.3000°N, 19.0000°E)
Time: 02:00:16
(UTC+00:00)

NOSS 2-2 (C) - Pass Details

Date: 19 September 2020
Orbit: 468 x 1740 km, 63.3° (Epoch: 19 October)

Event Time Altitude Azimuth Distance (km) Brightness Sun altitude
Rises 01:40:56 0° 316° (NW) 3,103 7.1 -25.3°
Reaches altitude 10° 01:42:59 10° 316° (NW) 2,320 6.4 -25.0°
Maximum altitude 01:48:22 86° 228° (SW) 968 4.3 -24.3°
Drops below altitude 10° 01:55:54 10° 141° (SE) 3,199 7.2 -23.4°
Sets 01:59:09 0° 141° (SE) 4,364 8.0 -22.9°
